London, United Kingdom

3:24 PM BST on June 22, 2018 (GMT +0100)
Heathrow

Weather History for EGLL - October, 2017

Change the Weather History Date:

Thursday, October 12, 2017

  Actual Average Record
Temperature  
Mean Temperature 56 °F -  
Max Temperature 64 °F 55 °F 71 °F (2001)
Min Temperature 47 °F 43 °F 39 °F (1999)
Degree Days  
Heating Degree Days 10    
Growing Degree Days 6 (Base 50)    
Moisture  
Dew Point 49 °F    
Average Humidity 77    
Maximum Humidity 95    
Minimum Humidity 43    
Precipitation  
Precipitation 0.08 in - - ()
Sea Level Pressure  
Sea Level Pressure 30.11 in    
Wind  
Wind Speed 9 mph ()    
Max Wind Speed 16 mph    
Max Gust Speed -    
Visibility 7.3 miles    
Events Fog , Rain    
Averages and records for this station are not official NWS values.
T = Trace of Precipitation, MM = Missing Value Source: Averaged Metar Reports

Daily Weather History Graph

Daily Weather History Graph

Search for Another Location

Airport or City:

Astronomy

Oct. 12, 2017 Rise Set
Actual Time 7:20 AM BST 6:14 PM BST
Civil Twilight 6:47 AM BST 6:48 PM BST
Nautical Twilight 6:08 AM BST 7:26 PM BST
Astronomical Twilight 5:29 AM BST 8:05 PM BST
Moon 11:42 PM BST (10/12) 2:43 PM BST (10/12)
Length of Visible Light 12h 00m
Length of Day
10h 53m
Waning Gibbous, 51% of the Moon is Illuminated
Oct 12
Waning Gibbous
Oct 12
Last Quarter
Oct 19
New
Oct 27
First Quarter
Nov 4
Full

Hourly Weather History & Observations

Time (BST) Temp. Dew Point Humidity Pressure Visibility Wind Dir Wind Speed Gust Speed Precip Events Conditions
12:00 AM 53 °F 50 °F 84% 29.94 in 7 mi WSW 13.8 mph - -  
12:20 AM 53.6 °F 50.0 °F 88% 29.95 in 6.2 mi WSW 12.7 mph - N/A   Unknown
12:50 AM 53.6 °F 50.0 °F 88% 29.95 in 6.2 mi WSW 12.7 mph - N/A   Unknown
1:00 AM 52 °F 49 °F 88% 29.95 in 8 mi WSW 12.7 mph - -  
1:20 AM 53.6 °F 48.2 °F 82% 29.95 in 6.2 mi WSW 10.4 mph - N/A   Unknown
1:50 AM 53.6 °F 48.2 °F 82% 29.98 in 6.2 mi West 10.4 mph - N/A   Unknown
2:00 AM 52 °F 49 °F 87% 29.98 in 7 mi WSW 12.7 mph - -  
2:20 AM 51.8 °F 48.2 °F 88% 29.98 in 6.2 mi WSW 9.2 mph - N/A   Unknown
2:50 AM 51.8 °F 48.2 °F 88% 30.01 in 6.2 mi WSW 10.4 mph - N/A   Unknown
3:00 AM 51 °F 49 °F 89% 30.00 in 6 mi WSW 11.5 mph - -  
3:20 AM 51.8 °F 48.2 °F 88% 30.01 in 6.2 mi WSW 6.9 mph - N/A   Unknown
3:50 AM 50.0 °F 48.2 °F 94% 30.01 in 6.2 mi WSW 6.9 mph - N/A   Unknown
4:00 AM 49 °F 47 °F 88% 30.03 in 6 mi WSW 5.8 mph - -  
4:20 AM 50.0 °F 48.2 °F 94% 30.04 in 6.2 mi SW 4.6 mph - N/A   Unknown
4:50 AM 50.0 °F 48.2 °F 94% 30.04 in 6.2 mi SSW 3.5 mph - N/A   Unknown
5:00 AM 49 °F 47 °F 92% 30.04 in 7 mi SW 5.8 mph - -  
5:20 AM 50.0 °F 48.2 °F 94% 30.04 in 5.6 mi SSW 5.8 mph - N/A   Unknown
5:50 AM 50.0 °F 46.4 °F 87% 30.06 in 6.2 mi SSW 4.6 mph - N/A   Partly Cloudy
6:00 AM 49 °F 48 °F 95% 30.06 in 7 mi SSW 4.6 mph - -  
6:20 AM 50.0 °F 48.2 °F 94% 30.06 in 6.2 mi SW 6.9 mph - N/A   Partly Cloudy
6:50 AM 50.0 °F 48.2 °F 94% 30.06 in 5.6 mi SW 5.8 mph - N/A   Mostly Cloudy
7:00 AM 51 °F 49 °F 88% 30.09 in 7 mi SW 6.9 mph - -  
7:20 AM 50.0 °F 48.2 °F 94% 30.09 in 5.6 mi SW 5.8 mph - N/A   Mostly Cloudy
7:50 AM 51.8 °F 48.2 °F 88% 30.09 in 6.2 mi WSW 6.9 mph - N/A   Mostly Cloudy
8:00 AM 51 °F 49 °F 91% 30.12 in 6 mi WSW 5.8 mph - -  
8:20 AM 51.8 °F 48.2 °F 88% 30.12 in 6.2 mi WSW 5.8 mph - N/A   Mostly Cloudy
8:50 AM 53.6 °F 50.0 °F 88% 30.12 in 6.2 mi SW 8.1 mph - N/A   Overcast
9:00 AM 54 °F 50 °F 82% 30.13 in 8 mi SW 6.9 mph - -  
9:20 AM 53.6 °F 50.0 °F 88% 30.12 in 6.2 mi WSW 9.2 mph - N/A   Mostly Cloudy
9:50 AM 55.4 °F 50.0 °F 82% 30.12 in 6.2 mi SW 10.4 mph - N/A   Mostly Cloudy
10:00 AM 56 °F 51 °F 77% 30.15 in 9 mi SW 9.2 mph - -  
10:20 AM 57.2 °F 50.0 °F 77% 30.15 in 6.2 mi SW 12.7 mph - N/A   Unknown
10:50 AM 57.2 °F 51.8 °F 82% 30.15 in 6.2 mi SW 10.4 mph - N/A   Unknown
11:00 AM 59 °F 51 °F 69% 30.16 in 11 mi SW 9.2 mph - -  
11:20 AM 59.0 °F 50.0 °F 72% 30.15 in 6.2 mi WSW 13.8 mph - N/A   Unknown
11:50 AM 59.0 °F 50.0 °F 72% 30.15 in 6.2 mi WSW 12.7 mph - N/A   Unknown
12:00 PM 60 °F 50 °F 60% 30.17 in 11 mi WSW 11.5 mph - - Fog Fog
12:20 PM 60.8 °F 50.0 °F 68% 30.15 in 6.2 mi WSW 13.8 mph - N/A   Unknown
12:50 PM 60.8 °F 50.0 °F 68% 30.15 in 6.2 mi West 13.8 mph - N/A   Scattered Clouds
1:00 PM 62 °F 50 °F 54% 30.17 in 17 mi WSW 13.8 mph - - Rain Rain
1:20 PM 62.6 °F 50.0 °F 63% 30.15 in 6.2 mi WSW 15.0 mph - N/A   Scattered Clouds
1:50 PM 62.6 °F 48.2 °F 59% 30.15 in 6.2 mi WSW 16.1 mph - N/A   Mostly Cloudy
2:20 PM 62.6 °F 48.2 °F 59% 30.15 in 6.2 mi WSW 13.8 mph - N/A   Partly Cloudy
2:50 PM 64.4 °F 46.4 °F 52% 30.15 in 6.2 mi WSW 16.1 mph - N/A   Scattered Clouds
3:00 PM 63 °F 46 °F 43% 30.16 in 19 mi WSW 16.1 mph - -   Scattered Clouds
3:20 PM 62.6 °F 46.4 °F 55% 30.15 in 6.2 mi WSW 12.7 mph - N/A   Unknown
3:50 PM 64.4 °F 48.2 °F 56% 30.15 in 6.2 mi WSW 11.5 mph - N/A   Mostly Cloudy
4:00 PM 62 °F 47 °F 47% 30.15 in 22 mi WSW 12.7 mph - -   Partly Cloudy
4:20 PM 62.6 °F 46.4 °F 55% 30.15 in 6.2 mi WSW 13.8 mph - N/A   Mostly Cloudy
4:50 PM 62.6 °F 46.4 °F 55% 30.15 in 6.2 mi WSW 12.7 mph - N/A   Partly Cloudy
5:00 PM 62 °F 46 °F 45% 30.15 in 17 mi WSW 12.7 mph - -   Partly Cloudy
5:20 PM 62.6 °F 48.2 °F 59% 30.15 in 6.2 mi SW 12.7 mph - N/A   Scattered Clouds
5:50 PM 60.8 °F 48.2 °F 63% 30.15 in 6.2 mi SW 12.7 mph - N/A   Scattered Clouds
6:00 PM 60 °F 48 °F 55% 30.16 in 12 mi SW 12.7 mph - -   Partly Cloudy
6:20 PM 59.0 °F 48.2 °F 67% 30.15 in 6.2 mi SSW 10.4 mph - N/A   Mostly Cloudy
6:50 PM 57.2 °F 48.2 °F 72% 30.15 in 6.2 mi SSW 10.4 mph - N/A   Mostly Cloudy
7:00 PM 58 °F 48 °F 59% 30.17 in 14 mi SSW 10.4 mph - -   Mostly Cloudy
7:20 PM 57.2 °F 48.2 °F 72% 30.15 in 6.2 mi SSW 10.4 mph - N/A   Partly Cloudy
7:50 PM 55.4 °F 48.2 °F 77% 30.15 in 6.2 mi SW 9.2 mph - N/A   Unknown
8:00 PM 56 °F 48 °F 66% 30.17 in 10 mi SSW 9.2 mph - -   Scattered Clouds
8:20 PM 55.4 °F 48.2 °F 77% 30.15 in 6.2 mi SSW 8.1 mph - N/A   Scattered Clouds
8:50 PM 55.4 °F 48.2 °F 77% 30.15 in 6.2 mi SSW 9.2 mph - N/A   Partly Cloudy
9:00 PM 55 °F 49 °F 72% 30.17 in 9 mi SSW 9.2 mph - -   Scattered Clouds
9:20 PM 55.4 °F 48.2 °F 77% 30.18 in 6.2 mi SSW 9.2 mph - N/A   Unknown
9:50 PM 53.6 °F 50.0 °F 88% 30.18 in 6.2 mi SSW 8.1 mph - N/A   Unknown
10:20 PM 53.6 °F 50.0 °F 88% 30.18 in 6.2 mi SSW 8.1 mph - N/A   Unknown
10:50 PM 53.6 °F 50.0 °F 88% 30.18 in 6.2 mi SSW 9.2 mph - N/A   Unknown
11:20 PM 51.8 °F 50.0 °F 94% 30.18 in - SSW 6.9 mph - N/A   Clear
11:50 PM 51.8 °F 50.0 °F 94% 30.18 in - SSW 5.8 mph - N/A   Clear